Regional Weather Roundup
Issued by NWS

Home | Current Version | Previous Version | Text Only | Print | Product List | Glossary On
Versions: 1 2 3 4 5 6 7 8 9 10 11 12 13 14 15 16 17 18 19 20 21 22 23 24 25 26 27 28 29 30 31 32 33 34 35 36 37 38 39 40 41 42 43 44 45 46 47 48 49 50
000
ASHW40 PHFO 010910
RWRHI

WEATHER ROUNDUP FOR HAWAII
NATIONAL WEATHER SERVICE HONOLULU HI
1100 PM HST SAT JAN 31 2015

THIS IS AN AUTOMATED REPORT THAT HAS NOT BEEN QUALITY CONTROLLED.

NOTE..."FAIR" INDICATES FEW OR NO CLOUDS BELOW 12,000 FEET WITH NO
SIGNIFICANT WEATHER AND/OR OBSTRUCTIONS TO VISIBILITY.

* - THESE SITES REPORT LIMITED FIELDS

HIZ001>004-011000-
KAUAI-NIIHAU-

CITY           SKY/WX    TMP DP  RH WIND       PRES   REMARKS
LIHUE APT      CLOUDY    68  58  70 NW3       30.07R
PORT ALLEN*      N/A     66 N/A N/A N6          N/A
POIPU*           N/A     66 N/A N/A VRB2        N/A
PRINCEVILLE*     N/A     66 N/A N/A MISG        N/A
KOKOLE POINT*  NOT AVBL
MOLOAA DAIRY*  NOT AVBL
WAIMEA HTS*    NOT AVBL
PUU OPAE*      NOT AVBL
PUU LUA*       NOT AVBL
MAKAHA RIDGE*  NOT AVBL
$$

HIZ005>011-011000-
OAHU-

CITY           SKY/WX    TMP DP  RH WIND       PRES   REMARKS
HONOLULU       MOCLDY    71  63  75 NW7       30.04R
KALAELOA       CLEAR     70  61  73 N7        30.06R
KANEOHE MCB    CLOUDY    72  64  78 NW5       30.03S
WHEELER FIELD  FAIR      64  61  89 NW5       30.07R
BELLOWS*       NOT AVBL
KAHUKU*        NOT AVBL
WHEELER*       NOT AVBL
WAIANAE HARBOR NOT AVBL
DILLINGHAM*      N/A     68  63  83 MISG        N/A
KAHUKU TRN*      N/A     66  61  82 CALM        N/A
KAWAILOA*        N/A     64  61  88 N3G9        N/A
KII*             N/A     68  64  88 CALM        N/A
MAKUA RANGE*     N/A     72  63  73 E9G15       N/A
OAHU FOREST NW NOT AVBL
SCHOFIELD BRK*   N/A     61  57  88 MISG        N/A
SCHOFIELD S*   NOT AVBL
WAIANAE VLY*   NOT AVBL
KUAOKALA*      NOT AVBL
HONOULIUULI*   NOT AVBL
MOKUOLOE IS*   NOT AVBL
PALEHUA*       NOT AVBL
WAIAWA PHB*    NOT AVBL
$$

HIZ012>013-011000-
MOLOKAI-

CITY           SKY/WX    TMP DP  RH WIND       PRES   REMARKS
MOLOKAI AIRPT  CLOUDY    67  67 100 N6        30.06R
KALAUPAPA      NOT AVBL
MAKAPULAPAI*   NOT AVBL
MOLOKAI 1*     NOT AVBL
PUU ALII*      NOT AVBL
$$

HIZ016-011000-
KAHOOLAWE-

CITY           SKY/WX    TMP DP  RH WIND       PRES   REMARKS
KAHOOLAWE*     NOT AVBL
HAKIOAWA*      NOT AVBL
HONOKANAIA*      N/A     73  68  84 NE6G12    30.04S
KANELOA*         N/A     75  72  88 MISG      29.26R
KEALIALALO*    NOT AVBL
LUA MAKIKA*    NOT AVBL
$$

HIZ014>015-011000-
LANAI-

CITY           SKY/WX    TMP DP  RH WIND       PRES   REMARKS
LANAI CITY     FAIR      65  65 100 NE6       30.08F
LANAI 1*       NOT AVBL
$$

HIZ017>028-011000-
MAUI-

CITY           SKY/WX    TMP DP  RH WIND       PRES   REMARKS
KAHULUI        MOCLDY    70  65  84 VRB3      30.03S
KAPALUA-W MAUI NOT AVBL
HANA AIRPORT   MOCLDY    70  70 100 CALM      30.05F
HANA*          NOT AVBL
HALEAKALA SUMM   N/A     43   3  19 W20         N/A
MAALAEA BAY*   NOT AVBL
HALEAKALA*     NOT AVBL
KAUPO GAP*     NOT AVBL
KULA 1*          N/A    N/A N/A N/A SE3         N/A
$$

HIZ023>026-011000-
BIG ISLAND OF HAWAII COAST AND LOWER SLOPES-

CITY           SKY/WX    TMP DP  RH WIND       PRES   REMARKS
KAILUA KONA    CLEAR     77  69  76 N6        30.01R
HILO           CLOUDY    72  68  87 SW6       30.03S
HONOKAA*       NOT AVBL
KAWAIHAE MWT*  NOT AVBL
KAWAIHAE*        N/A     75 N/A N/A CALM        N/A
SOUTH POINT*   NOT AVBL
UPOLU AIRPORT* NOT AVBL
KAMUELA*       NOT AVBL
HAKALAU*         N/A     45  43  93 W5          N/A
KALOKO-HONOKO* NOT AVBL
PALI 2*          N/A     64  63  94 NE3         N/A
KEALAKOMO*       N/A     73  68  83 SE7G15      N/A
KAUPULEHU*     NOT AVBL
KAPAPALA*        N/A     65  64  96 CALM        N/A
LOWER KAHUKU*  NOT AVBL
PUHE CS*       NOT AVBL
PUHO CS*       NOT AVBL
PTA KEAMUKU*     N/A     55  50  82 CALM        N/A
WAIKOLOA*      NOT AVBL
$$

HIZ027>028-011000-
BIG ISLAND OF HAWAII INTERIOR AND SUMMMITS-

CITY           SKY/WX    TMP DP  RH WIND       PRES   REMARKS
BRADSHAW FIELD PTCLDY    42  28  56 SE5       30.34F
MK VISITOR CEN NOT AVBL
MAUNA KEA*       N/A     30 -13  15 NW35        N/A  WCI  14
MAUNA LOA*       N/A     41 -17   8 MISG        N/A
MAUNA LOA 1*   NOT AVBL
PTA KIPUKA*      N/A    N/A N/A N/A SE7         N/A
PTA RANGE 17*    N/A     54  48  82 E8          N/A
PTA WEST*        N/A     55  50  82 N9G18       N/A
NENE CABIN*    NOT AVBL
AHUMOA*        NOT AVBL
PTA PORTABLE*  NOT AVBL
PUU MALI*      NOT AVBL
$$

HIC003-011000-
NORTHWEST ISLANDS-

CITY           SKY/WX    TMP DP  RH WIND       PRES   REMARKS
MIDWAY ISLAND  PTCLDY    64  54  68 SE13      30.00R
MIDWAY NOS*    NOT AVBL
FRENCH FRIGATE NOT AVBL
$$

PHZ110>124-180-011000-
BUOY REPORTS

STATION/POSITION TIME  TEMP    WIND        PRES    WAVE   SWELL
                       AIR SEA DIR/SP/G            HT/PER HT/DIR
                 (UTC) (F)     (DEG/KT/KT) (MB)    (FT/S) (FT/D)
BUOY 51001       NOT AVBL
BUOY 51101       0900   68 72  350/  4/ 10 1018.0R  10/13
BUOY 51100       0900   73 76   30/  8/ 10 1017.4R
BUOY 51003       0800   76 78  100/ 12/ 16 1015.8S   9/15   8
BUOY 51004       0848   77 78   80/ 14/ 16 1016.2F   8/12
BARBERS PT BUOY  NOT AVBL
WAIMEA BAY BUOY  0900      77                N/A     7/14
KAILUA BAY BUOY  0900      77                N/A     8/14   5/350
LANAI BUOY       0900      78                N/A     4/14   3/300
BARBERS PT 2     0900      77                N/A     6/13   5/300
PAUWELA MAUI     0900      76                N/A     8/13
HILO             0900      77                N/A     9/14   7/340
KANEOHE BAY BUOY 0900      76                N/A     6/12   3/360
HANALEI KAUAI    NOT AVBL
KAHULUI HARBOR   0900   74 77  330/ 14/ 16 1016.6S
HONOLULU HARBOR  0900   73 76   60/  5/  7 1017.2S
KILO NALU        NOT AVBL
HILO HARBOR      0900   73 76  200/  4/  5 1016.4F
MOKUOLOE         0900      76              1017.7S
NAWILIWILI       0900      76                N/A
WHOTS BUOY       NOT AVBL
BUOY 51028       NOT AVBL
$$

......................KEY........................................
  SKY/WX - SKY CONDITIONS/PRESENT WEATHER
  TMP    - TEMPERATURE IN FAHRENHEIT
  DWPT   - DEWPOINT IN FAHRENHEIT
  RH     - RELATIVE HUMIDITY IN PERCENT
  WIND   - DIRECTION AND SPEED /MPH FOR ISLANDS...KTS FOR BUOYS/
  PRES   - MEAN SEA LEVEL PRESSURE IN INCHES OF HG
  VSB    - VISIBILITY IN MILES
  HX     - HEAT INDEX
  WCI    - WIND CHILL INDEX
  VRB    - VARIABLE WIND DIRECTION
  N/A    - NOT AVAILABLE


USA.gov is the U.S. government's official web portal to all federal, state and local government web resources and services.